Time,TemperatureF,DewpointF,PressureIn,WindDirection,WindDirectionDegrees,WindSpeedMPH,WindSpeedGustMPH,Humidity,HourlyPrecipIn,Conditions,Clouds,dailyrainin,SoftwareType,DateUTC
2013-06-12 00:01:00,54.0,45.0,30.08,South,175,1.0,11.0,71,-99.99,,,-99.99,,2013-06-12 07:01:00,
2013-06-12 00:11:00,53.0,44.0,30.08,SW,216,3.0,9.0,71,-99.99,,,-99.99,,2013-06-12 07:11:00,
2013-06-12 00:22:00,53.0,45.0,30.08,South,171,1.0,12.0,73,-99.99,,,-99.99,,2013-06-12 07:22:00,
2013-06-12 00:33:00,53.0,45.0,30.08,South,185,3.0,7.0,74,-99.99,,,-99.99,,2013-06-12 07:33:00,
2013-06-12 00:43:00,53.0,45.0,30.09,South,177,1.0,10.0,74,-99.99,,,-99.99,,2013-06-12 07:43:00,
2013-06-12 00:53:00,53.0,45.0,30.09,SSE,162,3.0,8.0,75,-99.99,,,-99.99,,2013-06-12 07:53:00,
2013-06-12 01:02:00,53.0,46.0,30.09,SSE,162,3.0,8.0,76,-99.99,,,-99.99,,2013-06-12 08:02:00,
2013-06-12 01:12:00,52.0,45.0,30.09,SSE,159,4.0,8.0,77,-99.99,,,-99.99,,2013-06-12 08:12:00,
2013-06-12 01:22:00,52.0,45.0,30.09,SSE,149,2.0,8.0,78,-99.99,,,-99.99,,2013-06-12 08:22:00,
2013-06-12 01:33:00,52.0,45.0,30.09,SSE,165,3.0,12.0,78,-99.99,,,-99.99,,2013-06-12 08:33:00,
2013-06-12 01:42:00,52.0,46.0,30.09,South,179,0.0,6.0,79,-99.99,,,-99.99,,2013-06-12 08:42:00,
2013-06-12 01:52:00,52.0,46.0,30.09,South,179,0.0,6.0,79,-99.99,,,-99.99,,2013-06-12 08:52:00,
2013-06-12 02:01:00,52.0,46.0,30.09,South,172,2.0,7.0,79,-99.99,,,-99.99,,2013-06-12 09:01:00,
2013-06-12 02:11:00,52.0,46.0,30.09,SSE,164,1.0,7.0,80,-99.99,,,-99.99,,2013-06-12 09:11:00,
2013-06-12 02:22:00,52.0,46.0,30.09,SSE,164,2.0,7.0,81,-99.99,,,-99.99,,2013-06-12 09:22:00,
2013-06-12 02:33:00,52.0,46.0,30.09,SSE,165,3.0,6.0,81,-99.99,,,-99.99,,2013-06-12 09:33:00,
2013-06-12 02:42:00,52.0,46.0,30.09,South,169,1.0,7.0,81,-99.99,,,-99.99,,2013-06-12 09:42:00,
2013-06-12 02:53:00,52.0,46.0,30.09,South,184,1.0,6.0,81,-99.99,,,-99.99,,2013-06-12 09:53:00,
2013-06-12 03:01:00,52.0,46.0,30.09,South,187,0.0,5.0,81,-99.99,,,-99.99,,2013-06-12 10:01:00,
2013-06-12 03:11:00,52.0,46.0,30.09,SSE,162,3.0,4.0,80,-99.99,,,-99.99,,2013-06-12 10:11:00,
2013-06-12 03:22:00,52.0,46.0,30.09,SSE,158,1.0,8.0,80,-99.99,,,-99.99,,2013-06-12 10:22:00,
2013-06-12 03:32:00,52.0,46.0,30.09,SSE,156,3.0,7.0,80,-99.99,,,-99.99,,2013-06-12 10:32:00,
2013-06-12 03:42:00,53.0,47.0,30.09,SSE,157,0.0,7.0,79,-99.99,,,-99.99,,2013-06-12 10:42:00,
2013-06-12 03:53:00,53.0,47.0,30.09,South,185,0.0,7.0,79,-99.99,,,-99.99,,2013-06-12 10:53:00,
2013-06-12 04:01:00,53.0,47.0,30.09,SSE,162,3.0,7.0,79,-99.99,,,-99.99,,2013-06-12 11:01:00,
2013-06-12 04:12:00,53.0,47.0,30.09,SSE,162,1.0,10.0,79,-99.99,,,-99.99,,2013-06-12 11:12:00,
2013-06-12 04:24:00,52.0,46.0,30.09,South,183,1.0,6.0,79,-99.99,,,-99.99,,2013-06-12 11:24:00,
2013-06-12 04:33:00,52.0,46.0,30.09,SSE,166,1.0,6.0,79,-99.99,,,-99.99,,2013-06-12 11:33:00,
2013-06-12 04:42:00,52.0,46.0,30.09,SSW,205,0.0,4.0,79,-99.99,,,-99.99,,2013-06-12 11:42:00,
2013-06-12 04:53:00,52.0,46.0,30.09,South,189,0.0,4.0,79,-99.99,,,-99.99,,2013-06-12 11:53:00,
2013-06-12 05:01:00,52.0,46.0,30.09,SSW,200,0.0,9.0,79,-99.99,,,-99.99,,2013-06-12 12:01:00,
2013-06-12 05:11:00,52.0,46.0,30.09,SSW,200,0.0,9.0,79,-99.99,,,-99.99,,2013-06-12 12:11:00,
2013-06-12 05:23:00,52.0,46.0,30.09,SSE,156,1.0,4.0,79,-99.99,,,-99.99,,2013-06-12 12:23:00,
2013-06-12 05:33:00,52.0,46.0,30.09,SSE,159,1.0,7.0,79,-99.99,,,-99.99,,2013-06-12 12:33:00,
2013-06-12 05:42:00,53.0,47.0,30.09,SSE,166,1.0,5.0,79,-99.99,,,-99.99,,2013-06-12 12:42:00,
2013-06-12 05:53:00,53.0,47.0,30.09,SSE,157,2.0,7.0,79,-99.99,,,-99.99,,2013-06-12 12:53:00,
2013-06-12 06:01:00,53.0,47.0,30.09,SSE,157,2.0,7.0,79,-99.99,,,-99.99,,2013-06-12 13:01:00,
2013-06-12 06:11:00,53.0,47.0,30.09,South,169,4.0,7.0,79,-99.99,,,-99.99,,2013-06-12 13:11:00,
2013-06-12 06:22:00,53.0,46.0,30.09,SSE,167,3.0,11.0,78,-99.99,,,-99.99,,2013-06-12 13:22:00,
2013-06-12 06:32:00,53.0,46.0,30.09,SSE,166,4.0,9.0,78,-99.99,,,-99.99,,2013-06-12 13:32:00,
2013-06-12 06:43:00,53.0,46.0,30.10,SSE,153,5.0,14.0,78,-99.99,,,-99.99,,2013-06-12 13:43:00,
2013-06-12 06:53:00,53.0,46.0,30.10,SSE,153,5.0,14.0,78,-99.99,,,-99.99,,2013-06-12 13:53:00,
2013-06-12 07:01:00,53.0,46.0,30.10,SSE,160,1.0,7.0,77,-99.99,,,-99.99,,2013-06-12 14:01:00,
2013-06-12 07:11:00,53.0,46.0,30.10,SSE,157,4.0,10.0,77,-99.99,,,-99.99,,2013-06-12 14:11:00,
2013-06-12 07:23:00,54.0,47.0,30.10,South,177,2.0,6.0,78,-99.99,,,-99.99,,2013-06-12 14:23:00,
2013-06-12 07:33:00,54.0,47.0,30.10,South,177,2.0,6.0,78,-99.99,,,-99.99,,2013-06-12 14:33:00,
2013-06-12 07:43:00,56.0,47.0,30.10,SE,134,5.0,10.0,71,-99.99,,,-99.99,,2013-06-12 14:43:00,
2013-06-12 07:53:00,56.0,47.0,30.10,South,184,2.0,8.0,72,-99.99,,,-99.99,,2013-06-12 14:53:00,
2013-06-12 08:01:00,56.0,47.0,30.10,South,184,2.0,8.0,72,-99.99,,,-99.99,,2013-06-12 15:01:00,
2013-06-12 08:11:00,56.0,47.0,30.10,SSW,211,1.0,9.0,71,-99.99,,,-99.99,,2013-06-12 15:11:00,
2013-06-12 08:23:00,57.0,47.0,30.10,SE,132,1.0,12.0,70,-99.99,,,-99.99,,2013-06-12 15:23:00,
2013-06-12 08:32:00,57.0,47.0,30.10,SE,132,1.0,12.0,70,-99.99,,,-99.99,,2013-06-12 15:32:00,
2013-06-12 08:43:00,57.0,47.0,30.10,SE,132,1.0,12.0,70,-99.99,,,-99.99,,2013-06-12 15:43:00,
2013-06-12 08:52:00,58.0,47.0,30.10,SSW,211,4.0,11.0,66,-99.99,,,-99.99,,2013-06-12 15:52:00,
2013-06-12 09:01:00,58.0,47.0,30.10,SW,215,3.0,11.0,66,-99.99,,,-99.99,,2013-06-12 16:01:00,
2013-06-12 09:11:00,57.0,47.0,30.11,South,188,3.0,9.0,68,-99.99,,,-99.99,,2013-06-12 16:11:00,
2013-06-12 09:21:00,57.0,47.0,30.11,South,188,1.0,12.0,68,-99.99,,,-99.99,,2013-06-12 16:21:00,
2013-06-12 09:32:00,58.0,47.0,30.11,SSE,160,3.0,7.0,66,-99.99,,,-99.99,,2013-06-12 16:32:00,
2013-06-12 09:43:00,59.0,47.0,30.11,WSW,237,3.0,10.0,64,-99.99,,,-99.99,,2013-06-12 16:43:00,
2013-06-12 09:52:00,59.0,47.0,30.11,WSW,237,3.0,10.0,64,-99.99,,,-99.99,,2013-06-12 16:52:00,
2013-06-12 10:01:00,58.0,46.0,30.11,WSW,240,1.0,4.0,64,-99.99,,,-99.99,,2013-06-12 17:01:00,
2013-06-12 10:11:00,58.0,45.0,30.11,SSW,213,0.0,7.0,63,-99.99,,,-99.99,,2013-06-12 17:11:00,
2013-06-12 10:22:00,58.0,45.0,30.11,SSW,213,0.0,7.0,63,-99.99,,,-99.99,,2013-06-12 17:22:00,
2013-06-12 10:32:00,58.0,45.0,30.11,WSW,246,3.0,7.0,61,-99.99,,,-99.99,,2013-06-12 17:32:00,
2013-06-12 10:42:00,59.0,45.0,30.11,South,181,0.0,7.0,60,-99.99,,,-99.99,,2013-06-12 17:42:00,
2013-06-12 10:52:00,60.0,46.0,30.11,SSW,195,3.0,6.0,60,-99.99,,,-99.99,,2013-06-12 17:52:00,
2013-06-12 11:02:00,61.0,44.0,30.11,SSE,158,6.0,10.0,54,-99.99,,,-99.99,,2013-06-12 18:02:00,
2013-06-12 11:12:00,61.0,44.0,30.11,SE,131,4.0,10.0,54,-99.99,,,-99.99,,2013-06-12 18:12:00,
2013-06-12 11:22:00,62.0,45.0,30.11,SSW,211,2.0,11.0,54,-99.99,,,-99.99,,2013-06-12 18:22:00,
2013-06-12 11:32:00,61.0,44.0,30.11,South,171,2.0,13.0,54,-99.99,,,-99.99,,2013-06-12 18:32:00,
2013-06-12 11:43:00,61.0,44.0,30.11,SSE,168,4.0,9.0,53,-99.99,,,-99.99,,2013-06-12 18:43:00,
2013-06-12 11:53:00,62.0,44.0,30.10,SSE,166,3.0,9.0,52,-99.99,,,-99.99,,2013-06-12 18:53:00,
2013-06-12 12:01:00,63.0,45.0,30.10,SSE,151,5.0,9.0,51,-99.99,,,-99.99,,2013-06-12 19:01:00,
2013-06-12 12:11:00,63.0,45.0,30.10,SSE,151,5.0,9.0,51,-99.99,,,-99.99,,2013-06-12 19:11:00,
2013-06-12 12:22:00,62.0,45.0,30.11,WSW,238,1.0,10.0,53,-99.99,,,-99.99,,2013-06-12 19:22:00,
2013-06-12 12:32:00,64.0,44.0,30.11,SE,141,2.0,11.0,48,-99.99,,,-99.99,,2013-06-12 19:32:00,
2013-06-12 12:42:00,64.0,44.0,30.11,SE,141,2.0,11.0,48,-99.99,,,-99.99,,2013-06-12 19:42:00,
2013-06-12 12:52:00,65.0,43.0,30.10,SSE,154,2.0,9.0,44,-99.99,,,-99.99,,2013-06-12 19:52:00,
2013-06-12 13:01:00,65.0,44.0,30.10,SW,219,2.0,11.0,47,-99.99,,,-99.99,,2013-06-12 20:01:00,
2013-06-12 13:11:00,65.0,45.0,30.10,SSE,151,3.0,6.0,48,-99.99,,,-99.99,,2013-06-12 20:11:00,
2013-06-12 13:21:00,64.0,43.0,30.10,South,171,3.0,7.0,47,-99.99,,,-99.99,,2013-06-12 20:21:00,
2013-06-12 13:32:00,64.0,43.0,30.10,SSW,193,1.0,10.0,46,-99.99,,,-99.99,,2013-06-12 20:32:00,
2013-06-12 13:42:00,64.0,44.0,30.10,SSE,154,1.0,7.0,48,-99.99,,,-99.99,,2013-06-12 20:42:00,
2013-06-12 13:54:00,64.0,44.0,30.10,SSE,154,1.0,7.0,48,-99.99,,,-99.99,,2013-06-12 20:54:00,
2013-06-12 14:01:00,63.0,43.0,30.09,SSE,167,1.0,7.0,48,-99.99,,,-99.99,,2013-06-12 21:01:00,
2013-06-12 14:11:00,68.0,45.0,30.09,SSE,163,5.0,9.0,43,-99.99,,,-99.99,,2013-06-12 21:11:00,
2013-06-12 14:21:00,66.0,43.0,30.10,South,172,4.0,9.0,43,-99.99,,,-99.99,,2013-06-12 21:21:00,
2013-06-12 14:33:00,66.0,43.0,30.10,SE,144,4.0,10.0,44,-99.99,,,-99.99,,2013-06-12 21:33:00,
2013-06-12 14:43:00,66.0,43.0,30.09,SSE,166,5.0,9.0,44,-99.99,,,-99.99,,2013-06-12 21:43:00,
2013-06-12 14:52:00,66.0,43.0,30.09,SSE,155,5.0,12.0,43,-99.99,,,-99.99,,2013-06-12 21:52:00,
2013-06-12 15:01:00,66.0,43.0,30.09,SSE,155,5.0,12.0,43,-99.99,,,-99.99,,2013-06-12 22:01:00,
2013-06-12 15:11:00,66.0,43.0,30.09,ESE,123,4.0,9.0,44,-99.99,,,-99.99,,2013-06-12 22:11:00,
2013-06-12 15:22:00,66.0,42.0,30.09,WSW,240,2.0,9.0,42,-99.99,,,-99.99,,2013-06-12 22:22:00,
2013-06-12 15:32:00,67.0,43.0,30.09,SSE,147,4.0,12.0,41,-99.99,,,-99.99,,2013-06-12 22:32:00,
2013-06-12 15:42:00,70.0,43.0,30.09,SE,142,3.0,12.0,37,-99.99,,,-99.99,,2013-06-12 22:42:00,
2013-06-12 15:52:00,70.0,43.0,30.09,SE,142,3.0,12.0,37,-99.99,,,-99.99,,2013-06-12 22:52:00,
2013-06-12 16:22:00,69.0,45.0,30.09,SW,216,3.0,12.0,42,-99.99,,,-99.99,,2013-06-12 23:22:00,
2013-06-12 16:32:00,69.0,45.0,30.09,SW,216,3.0,12.0,42,-99.99,,,-99.99,,2013-06-12 23:32:00,
2013-06-12 16:42:00,69.0,45.0,30.09,SW,216,3.0,12.0,42,-99.99,,,-99.99,,2013-06-12 23:42:00,
2013-06-12 16:52:00,69.0,46.0,30.09,WSW,241,2.0,13.0,43,-99.99,,,-99.99,,2013-06-12 23:52:00,
2013-06-12 17:01:00,69.0,46.0,30.09,WSW,241,2.0,13.0,43,-99.99,,,-99.99,,2013-06-13 00:01:00,
2013-06-12 17:11:00,68.0,45.0,30.09,SW,219,2.0,17.0,43,-99.99,,,-99.99,,2013-06-13 00:11:00,
2013-06-12 17:22:00,68.0,45.0,30.09,SW,219,2.0,17.0,43,-99.99,,,-99.99,,2013-06-13 00:22:00,
2013-06-12 17:32:00,67.0,44.0,30.09,South,185,5.0,10.0,44,-99.99,,,-99.99,,2013-06-13 00:32:00,
2013-06-12 17:42:00,67.0,45.0,30.09,SSW,208,2.0,11.0,45,-99.99,,,-99.99,,2013-06-13 00:42:00,
2013-06-12 17:52:00,66.0,45.0,30.09,SW,228,5.0,12.0,47,-99.99,,,-99.99,,2013-06-13 00:52:00,
2013-06-12 18:01:00,65.0,43.0,30.09,SSE,159,6.0,12.0,45,-99.99,,,-99.99,,2013-06-13 01:01:00,
2013-06-12 18:11:00,66.0,44.0,30.09,SW,225,3.0,14.0,45,-99.99,,,-99.99,,2013-06-13 01:11:00,
2013-06-12 18:22:00,65.0,44.0,30.09,South,174,2.0,8.0,46,-99.99,,,-99.99,,2013-06-13 01:22:00,
2013-06-12 18:32:00,64.0,43.0,30.09,SW,236,4.0,15.0,47,-99.99,,,-99.99,,2013-06-13 01:32:00,
2013-06-12 18:42:00,64.0,45.0,30.09,SSW,208,3.0,10.0,51,-99.99,,,-99.99,,2013-06-13 01:42:00,
2013-06-12 18:52:00,64.0,45.0,30.09,SSW,208,3.0,10.0,51,-99.99,,,-99.99,,2013-06-13 01:52:00,
2013-06-12 19:01:00,62.0,45.0,30.10,SSE,159,3.0,9.0,54,-99.99,,,-99.99,,2013-06-13 02:01:00,
2013-06-12 19:11:00,62.0,45.0,30.10,SSE,159,3.0,9.0,54,-99.99,,,-99.99,,2013-06-13 02:11:00,
2013-06-12 19:22:00,62.0,45.0,30.10,SSE,161,3.0,11.0,54,-99.99,,,-99.99,,2013-06-13 02:22:00,
2013-06-12 19:33:00,61.0,45.0,30.10,SSW,198,2.0,7.0,56,-99.99,,,-99.99,,2013-06-13 02:33:00,
2013-06-12 19:42:00,61.0,45.0,30.10,SSW,198,2.0,7.0,56,-99.99,,,-99.99,,2013-06-13 02:42:00,
2013-06-12 19:52:00,60.0,46.0,30.10,SSW,196,2.0,6.0,59,-99.99,,,-99.99,,2013-06-13 02:52:00,
2013-06-12 20:01:00,60.0,47.0,30.10,SSE,160,4.0,7.0,61,-99.99,,,-99.99,,2013-06-13 03:01:00,
2013-06-12 20:11:00,60.0,47.0,30.10,SW,219,1.0,6.0,62,-99.99,,,-99.99,,2013-06-13 03:11:00,
2013-06-12 20:22:00,60.0,47.0,30.10,SSE,167,2.0,9.0,62,-99.99,,,-99.99,,2013-06-13 03:22:00,
2013-06-12 20:32:00,60.0,47.0,30.10,SSE,155,0.0,5.0,62,-99.99,,,-99.99,,2013-06-13 03:32:00,
2013-06-12 20:42:00,60.0,47.0,30.10,SSW,196,1.0,4.0,61,-99.99,,,-99.99,,2013-06-13 03:42:00,
2013-06-12 20:52:00,59.0,45.0,30.10,South,186,2.0,7.0,60,-99.99,,,-99.99,,2013-06-13 03:52:00,
2013-06-12 21:01:00,59.0,45.0,30.10,South,186,2.0,7.0,60,-99.99,,,-99.99,,2013-06-13 04:01:00,
2013-06-12 21:11:00,59.0,46.0,30.10,SSE,152,0.0,5.0,62,-99.99,,,-99.99,,2013-06-13 04:11:00,
2013-06-12 21:22:00,59.0,47.0,30.10,SSW,198,2.0,6.0,64,-99.99,,,-99.99,,2013-06-13 04:22:00,
2013-06-12 21:32:00,58.0,46.0,30.11,South,173,2.0,7.0,65,-99.99,,,-99.99,,2013-06-13 04:32:00,
2013-06-12 21:43:00,58.0,46.0,30.11,South,173,2.0,7.0,65,-99.99,,,-99.99,,2013-06-13 04:43:00,
2013-06-12 21:53:00,58.0,47.0,30.11,SSW,195,1.0,4.0,66,-99.99,,,-99.99,,2013-06-13 04:53:00,
2013-06-12 22:01:00,58.0,47.0,30.12,South,169,1.0,4.0,67,-99.99,,,-99.99,,2013-06-13 05:01:00,
2013-06-12 22:11:00,58.0,48.0,30.12,South,170,0.0,3.0,69,-99.99,,,-99.99,,2013-06-13 05:11:00,
2013-06-12 22:23:00,58.0,48.0,30.12,South,170,0.0,3.0,69,-99.99,,,-99.99,,2013-06-13 05:23:00,
2013-06-12 22:32:00,58.0,48.0,30.12,South,191,1.0,4.0,69,-99.99,,,-99.99,,2013-06-13 05:32:00,
2013-06-12 22:42:00,58.0,48.0,30.12,South,191,1.0,4.0,69,-99.99,,,-99.99,,2013-06-13 05:42:00,
2013-06-12 22:52:00,57.0,49.0,30.12,SSE,168,1.0,7.0,74,-99.99,,,-99.99,,2013-06-13 05:52:00,
2013-06-12 23:02:00,56.0,48.0,30.12,SSE,154,3.0,6.0,75,-99.99,,,-99.99,,2013-06-13 06:02:00,
2013-06-12 23:11:00,56.0,49.0,30.12,SSE,160,0.0,6.0,76,-99.99,,,-99.99,,2013-06-13 06:11:00,
2013-06-12 23:22:00,56.0,49.0,30.12,SSW,199,1.0,5.0,76,-99.99,,,-99.99,,2013-06-13 06:22:00,
2013-06-12 23:33:00,56.0,49.0,30.12,South,183,0.0,5.0,76,-99.99,,,-99.99,,2013-06-13 06:33:00,
2013-06-12 23:44:00,56.0,48.0,30.12,South,189,1.0,6.0,75,-99.99,,,-99.99,,2013-06-13 06:44:00,
2013-06-12 23:52:00,56.0,48.0,30.12,South,188,0.0,5.0,75,-99.99,,,-99.99,,2013-06-13 06:52:00,